Weather History for KSZT - May, 2013

Change the Weather History Date:

Tuesday, May 7, 2013

  Actual Average Record
Temperature  
Mean Temperature 58 °F -  
Max Temperature 80 °F 65 °F 87 °F (1992)
Min Temperature 37 °F 39 °F 27 °F (1911)
Degree Days  
Heating Degree Days 6    
Growing Degree Days 8 (Base 50)    
Moisture  
Dew Point 40 °F    
Average Humidity 55    
Maximum Humidity 100    
Minimum Humidity 17    
Precipitation  
Precipitation 0.00 in - - ()
Sea Level Pressure  
Sea Level Pressure 29.87 in    
Wind  
Wind Speed 2 mph (ESE)    
Max Wind Speed 9 mph    
Max Gust Speed -    
Visibility 10 miles    
Events      
Averages and records for this station are not official NWS values.
T = Trace of Precipitation, MM = Missing Value Source: NWS Daily Summary

Daily Weather History Graph

Daily Weather History Graph

Search for Another Location

Airport or City:

Trip Planner

Search our weather history database for the weather conditions in past years. The results will help you decide how hot, cold, wet, or windy it might be!

Date:

Astronomy

May. 07, 2013 Rise Set
Actual Time 5:17 AM PDT 8:09 PM PDT
Civil Twilight 4:41 AM PDT 8:45 PM PDT
Nautical Twilight 3:55 AM PDT 9:31 PM PDT
Astronomical Twilight 2:59 AM PDT 10:28 PM PDT
Moon 4:04 AM PDT (5/7) 6:05 PM PDT (5/7)
Length of Visible Light 16h 04m
Length of Day
14h 51m
Waning Crescent, 5% of the Moon is Illuminated
May 7
Waning Crescent
May 9
New
May 17
First Quarter
May 24
Full
May 31
Last Quarter

Hourly Weather History & Observations

Time (PDT) Temp. Windchill Dew Point Humidity Pressure Visibility Wind Dir Wind Speed Gust Speed Precip Events Conditions
12:15 AM 46.4 °F - 41.0 °F 81% 29.81 in 10.0 mi Calm Calm - N/A   Clear
12:35 AM 44.6 °F - 41.0 °F 87% 29.81 in 10.0 mi Calm Calm - N/A   Clear
12:55 AM 44.6 °F - 41.0 °F 87% 29.81 in 10.0 mi Calm Calm - N/A   Clear
1:15 AM 44.6 °F - 41.0 °F 87% 29.82 in 10.0 mi Calm Calm - N/A   Clear
1:35 AM 42.8 °F - 39.2 °F 87% 29.82 in 10.0 mi Calm Calm - N/A   Clear
1:55 AM 44.6 °F - 39.2 °F 81% 29.82 in 10.0 mi Calm Calm - N/A   Clear
2:15 AM 42.8 °F - 39.2 °F 87% 29.82 in 10.0 mi Calm Calm - N/A   Clear
2:35 AM 42.8 °F - 41.0 °F 93% 29.83 in 10.0 mi Calm Calm - N/A   Clear
3:15 AM 41.0 °F - 41.0 °F 100% 29.83 in 10.0 mi Calm Calm - N/A   Clear
3:35 AM 41.0 °F - 41.0 °F 100% 29.84 in 10.0 mi Calm Calm - N/A   Clear
3:55 AM 41.0 °F - 41.0 °F 100% 29.84 in 10.0 mi Calm Calm - N/A   Clear
4:15 AM 41.0 °F 39.0 °F 41.0 °F 100% 29.84 in 10.0 mi WNW 3.5 mph - N/A   Clear
4:35 AM 39.2 °F - 39.2 °F 100% 29.85 in 10.0 mi Calm Calm - N/A   Clear
4:55 AM 39.2 °F - 39.2 °F 100% 29.86 in 10.0 mi Calm Calm - N/A   Clear
5:15 AM 37.4 °F - 37.4 °F 100% 29.86 in 10.0 mi Calm Calm - N/A   Clear
5:35 AM 39.2 °F - 39.2 °F 100% 29.86 in 10.0 mi Calm Calm - N/A   Clear
5:55 AM 39.2 °F - 39.2 °F 100% 29.87 in 10.0 mi Calm Calm - N/A   Clear
6:15 AM 42.8 °F - 41.0 °F 93% 29.88 in 10.0 mi Calm Calm - N/A   Clear
6:35 AM 44.6 °F - 41.0 °F 87% 29.88 in 10.0 mi Calm Calm - N/A   Clear
6:55 AM 46.4 °F 44.3 °F 39.2 °F 76% 29.89 in 10.0 mi West 4.6 mph - N/A   Clear
7:15 AM 48.2 °F - 39.2 °F 71% 29.89 in 10.0 mi Calm Calm - N/A   Clear
7:35 AM 51.8 °F - 41.0 °F 67% 29.89 in 10.0 mi Calm Calm - N/A   Clear
7:55 AM 53.6 °F - 41.0 °F 62% 29.89 in 10.0 mi SE 3.5 mph - N/A   Clear
8:15 AM 57.2 °F - 41.0 °F 55% 29.90 in 10.0 mi West 4.6 mph - N/A   Clear
8:55 AM 60.8 °F - 41.0 °F 48% 29.90 in 10.0 mi Calm Calm - N/A   Clear
9:15 AM 64.4 °F - 39.2 °F 40% 29.89 in 10.0 mi NE 6.9 mph - N/A   Clear
9:35 AM 62.6 °F - 42.8 °F 48% 29.89 in 10.0 mi East 5.8 mph - N/A   Clear
9:55 AM 62.6 °F - 42.8 °F 48% 29.89 in 10.0 mi ESE 9.2 mph - N/A   Clear
10:15 AM 62.6 °F - 44.6 °F 52% 29.90 in 10.0 mi East 9.2 mph - N/A   Clear
10:35 AM 64.4 °F - 42.8 °F 45% 29.90 in 10.0 mi East 6.9 mph - N/A   Clear
10:55 AM 66.2 °F - 41.0 °F 40% 29.90 in 10.0 mi ESE 8.1 mph - N/A   Clear
11:15 AM 68.0 °F - 41.0 °F 37% 29.90 in 10.0 mi ESE 8.1 mph - N/A   Clear
11:35 AM 71.6 °F - 42.8 °F 35% 29.89 in 10.0 mi East 5.8 mph - N/A   Clear
11:55 AM 71.6 °F - 41.0 °F 33% 29.89 in 10.0 mi ESE 8.1 mph - N/A   Clear
12:15 PM 73.4 °F - 41.0 °F 31% 29.89 in 10.0 mi ESE 6.9 mph - N/A   Clear
12:35 PM 77.0 °F - 39.2 °F 26% 29.88 in 10.0 mi ESE 6.9 mph - N/A   Clear
12:55 PM 77.0 °F - 39.2 °F 26% 29.88 in 10.0 mi SE 6.9 mph - N/A   Clear
1:15 PM 77.0 °F - 39.2 °F 26% 29.88 in 10.0 mi ESE 5.8 mph - N/A   Clear
1:35 PM 77.0 °F - 37.4 °F 24% 29.88 in 10.0 mi SE 5.8 mph - N/A   Clear
1:55 PM 78.8 °F - 37.4 °F 23% 29.88 in 10.0 mi ESE 5.8 mph - N/A   Clear
2:15 PM 78.8 °F - 37.4 °F 23% 29.88 in 10.0 mi ESE 5.8 mph - N/A   Clear
2:35 PM 78.8 °F - 37.4 °F 23% 29.87 in 10.0 mi ESE 4.6 mph - N/A   Clear
2:55 PM 80.6 °F - 33.8 °F 18% 29.87 in 10.0 mi SE 5.8 mph - N/A   Clear
3:15 PM 80.6 °F - 35.6 °F 20% 29.87 in 10.0 mi SE 5.8 mph - N/A   Clear
3:35 PM 80.6 °F - 35.6 °F 20% 29.86 in 10.0 mi ESE 5.8 mph - N/A   Clear
3:55 PM 80.6 °F - 33.8 °F 18% 29.86 in 10.0 mi ESE 5.8 mph - N/A   Clear
4:15 PM 80.6 °F - 33.8 °F 18% 29.85 in 10.0 mi ESE 3.5 mph - N/A   Clear
4:35 PM 80.6 °F - 33.8 °F 18% 29.85 in 10.0 mi SE 3.5 mph - N/A   Clear
4:55 PM 80.6 °F - 33.8 °F 18% 29.85 in 10.0 mi Calm Calm - N/A   Clear
5:15 PM 80.6 °F - 33.8 °F 18% 29.84 in 10.0 mi East 3.5 mph - N/A   Clear
5:35 PM 80.6 °F - 33.8 °F 18% 29.84 in 10.0 mi Calm Calm - N/A   Clear
5:55 PM 80.6 °F - 32.0 °F 17% 29.84 in 10.0 mi Calm Calm - N/A   Clear
6:15 PM 80.6 °F - 32.0 °F 17% 29.84 in 10.0 mi Calm Calm - N/A   Clear
6:35 PM 78.8 °F - 44.6 °F 30% 29.84 in 7.0 mi NNW 3.5 mph - N/A   Clear
6:55 PM 73.4 °F - 42.8 °F 33% 29.84 in 5.0 mi Calm Calm - N/A   Haze
7:15 PM 69.8 °F - 42.8 °F 38% 29.84 in 10.0 mi Calm Calm - N/A   Clear
7:35 PM 68.0 °F - 41.0 °F 37% 29.84 in 10.0 mi Calm Calm - N/A   Clear
7:55 PM 64.4 °F - 46.4 °F 52% 29.85 in 10.0 mi Calm Calm - N/A   Clear
8:15 PM 62.6 °F - 46.4 °F 55% 29.85 in 10.0 mi Calm Calm - N/A   Clear
8:35 PM 60.8 °F - 46.4 °F 59% 29.86 in 10.0 mi Calm Calm - N/A   Clear
8:55 PM 64.4 °F - 39.2 °F 40% 29.87 in 10.0 mi NE 8.1 mph - N/A   Clear
9:15 PM 57.2 °F - 44.6 °F 63% 29.88 in 10.0 mi NNE 3.5 mph - N/A   Clear
9:35 PM 55.4 °F - 44.6 °F 67% 29.89 in 10.0 mi North 4.6 mph - N/A   Clear
9:55 PM 57.2 °F - 42.8 °F 59% 29.90 in 10.0 mi Calm Calm - N/A   Clear
10:15 PM 57.2 °F - 41.0 °F 55% 29.91 in 10.0 mi Calm Calm - N/A   Clear
10:35 PM 53.6 °F - 42.8 °F 67% 29.91 in 10.0 mi Calm Calm - N/A   Clear
10:55 PM 59.0 °F - 39.2 °F 48% 29.92 in 10.0 mi Calm Calm - N/A   Clear
11:15 PM 55.4 °F - 41.0 °F 58% 29.93 in 10.0 mi ESE 3.5 mph - N/A   Clear
11:35 PM 55.4 °F - 41.0 °F 58% 29.93 in 10.0 mi Calm Calm - N/A   Clear
11:55 PM 53.6 °F - 42.8 °F 67% 29.94 in 10.0 mi Calm Calm - N/A   Clear